Location: Chuathbaluk
(61.5726°N, 159.2454°W)
Time: 03:59:11
(UTC+00:00)

Transit 2A - Pass Details

Date: 27 November 2020
Orbit: 599 x 960 km, 66.7° (Epoch: 26 January)

Event Time Altitude Azimuth Distance (km) Brightness Sun altitude
Rises 08:19:50 0° 270° (W) 3,565 9.9 -44.3°
Reaches altitude 10° 08:22:32 10° 276° (W) 2,582 9.1 -44.5°
Enters shadow 08:22:41 11° 276° (W) 2,527 9.0 -44.5°
Maximum altitude 08:28:23 52° 352° (N) 1,043 - -44.9°
Drops below altitude 10° 08:33:43 10° 70° (ENE) 2,354 - -45.3°
Sets 08:36:05 0° 75° (ENE) 3,224 - -45.5°
